QPF
0.00 0.00 0.00 0.00 0.00 0.00 0.00 0.00 0.00 0.00 0.00 0.00 0.00 0.01 0.01 0.03 0.03 0.04 0.06 0.08 0.11 0.05 0.02 0.02 0.02 0.02 0.01 0.02 0.02 0.03 0.04 0.04 0.05 0.07 0.08 0.10 0.06 0.04 0.04 0.05 0.05 0.11 0.20 0.08
0.00 0.00 0.00 0.00 0.00 0.00 0.00 0.00 0.00 0.00 0.00 0.00 0.00 0.01 0.01 0.01 0.02 0.03 0.04 0.11 0.14 0.05 0.02 0.02 0.02 0.01 0.01 0.02 0.02 0.03 0.04 0.04 0.05 0.06 0.09 0.12 0.05 0.04 0.05 0.06 0.07 0.12 0.14 0.06
0.00 0.00 0.00 0.00 0.00 0.00 0.00 0.00 0.00 0.00 0.00 0.00 0.00 0.01 0.01 0.02 0.06 0.05 0.04 0.12 0.10 0.04 0.03 0.03 0.02 0.02 0.02 0.02 0.02 0.04 0.04 0.06 0.06 0.05 0.07 0.10 0.05 0.04 0.04 0.05 0.06 0.08 0.07 0.06
0.00 0.00 0.00 0.00 0.00 0.00 0.00 0.00 0.00 0.00 0.00 0.00 0.00 0.01 0.01 0.03 0.07 0.05 0.07 0.10 0.05 0.06 0.05 0.03 0.02 0.02 0.03 0.03 0.05 0.05 0.05 0.06 0.05 0.04 0.06 0.07 0.06 0.04 0.04 0.05 0.04 0.05 0.05 0.05
0.00 0.00 0.00 0.00 0.00 0.00 0.00 0.00 0.00 0.00 0.00 0.00 0.00 0.01 0.01 0.01 0.03 0.03 0.06 0.05 0.02 0.03 0.06 0.05 0.02 0.02 0.03 0.04 0.05 0.03 0.03 0.04 0.03 0.03 0.04 0.05 0.05 0.04 0.06 0.07 0.04 0.05 0.06 0.06
0.00 0.00 0.00 0.00 0.00 0.00 0.00 0.00 0.00 0.00 0.00 0.00 0.00 0.01 0.01 0.01 0.01 0.02 0.02 0.01 0.01 0.02 0.04 0.04 0.03 0.03 0.03 0.03 0.03 0.02 0.02 0.02 0.02 0.02 0.03 0.04 0.04 0.05 0.05 0.04 0.03 0.04 0.05 0.06
0.00 0.00 0.00 0.00 0.00 0.00 0.00 0.00 0.00 0.00 0.00 0.00 0.01 0.01 0.01 0.01 0.02 0.02 0.02 0.01 0.01 0.02 0.04 0.05 0.03 0.05 0.04 0.03 0.02 0.02 0.02 0.02 0.02 0.01 0.02 0.04 0.05 0.06 0.07 0.05 0.04 0.04 0.05 0.05
0.00 0.00 0.00 0.00 0.00 0.00 0.00 0.00 0.00 0.00 0.00 0.00 0.00 0.01 0.02 0.02 0.02 0.02 0.04 0.05 0.01 0.02 0.04 0.04 0.03 0.03 0.03 0.02 0.01 0.02 0.03 0.02 0.02 0.03 0.04 0.06 0.06 0.07 0.06 0.05 0.07 0.07 0.05 0.05
0.00 0.00 0.00 0.00 0.00 0.00 0.00 0.00 0.00 0.00 0.00 0.00 0.00 0.00 0.02 0.03 0.04 0.03 0.03 0.05 0.02 0.02 0.05 0.03 0.01 0.02 0.01 0.01 0.01 0.02 0.03 0.03 0.03 0.03 0.05 0.06 0.05 0.05 0.04 0.03 0.06 0.08 0.07 0.06
0.00 0.00 0.00 0.00 0.00 0.00 0.00 0.00 0.00 0.00 0.00 0.00 0.00 0.00 0.01 0.03 0.05 0.02 0.01 0.01 0.01 0.01 0.03 0.05 0.04 0.02 0.01 0.00 0.01 0.01 0.01 0.01 0.02 0.02 0.03 0.04 0.04 0.04 0.04 0.04 0.06 0.07 0.08 0.07
0.00 0.00 0.00 0.00 0.00 0.00 0.00 0.00 0.00 0.00 0.00 0.00 0.00 0.00 0.00 0.01 0.02 0.01 0.01 0.01 0.00 0.01 0.02 0.04 0.03 0.01 0.00 0.00 0.01 0.01 0.01 0.01 0.01 0.01 0.03 0.04 0.05 0.06 0.05 0.03 0.03 0.05 0.05 0.05
0.00 0.00 0.00 0.00 0.00 0.00 0.00 0.00 0.00 0.00 0.00 0.00 0.00 0.00 0.00 0.00 0.01 0.02 0.02 0.01 0.01 0.00 0.01 0.01 0.01 0.00 0.00 0.00 0.00 0.00 0.00 0.01 0.01 0.02 0.03 0.04 0.05 0.05 0.04 0.03 0.03 0.06 0.04 0.04
0.00 0.00 0.00 0.00 0.00 0.00 0.00 0.00 0.00 0.00 0.00 0.00 0.00 0.00 0.00 0.00 0.02 0.03 0.02 0.01 0.01 0.01 0.00 0.00 0.00 0.00 0.00 0.00 0.00 0.00 0.00 0.01 0.02 0.02 0.02 0.02 0.03 0.04 0.05 0.04 0.03 0.04 0.03 0.03
0.00 0.00 0.00 0.00 0.00 0.00 0.00 0.00 0.00 0.00 0.00 0.00 0.00 0.00 0.00 0.00 0.01 0.01 0.01 0.01 0.01 0.01 0.00 0.00 0.00 0.00 0.00 0.00 0.00 0.00 0.00 0.01 0.03 0.02 0.01 0.01 0.02 0.05 0.07 0.06 0.05 0.04 0.03 0.02
0.00 0.00 0.00 0.00 0.00 0.00 0.00 0.00 0.00 0.00 0.00 0.00 0.01 0.00 0.01 0.01 0.01 0.01 0.01 0.02 0.01 0.01 0.01 0.00 0.00 0.00 0.00 0.00 0.00 0.00 0.01 0.01 0.04 0.03 0.02 0.02 0.03 0.05 0.11 0.15 0.10 0.05 0.02 0.02
0.00 0.00 0.00 0.00 0.00 0.00 0.00 0.00 0.00 0.00 0.00 0.00 0.01 0.00 0.00 0.00 0.01 0.01 0.01 0.01 0.01 0.02 0.02 0.01 0.01 0.00 0.00 0.00 0.00 0.00 0.01 0.01 0.03 0.03 0.03 0.03 0.03 0.04 0.05 0.06 0.05 0.03 0.02 0.02
0.00 0.00 0.00 0.00 0.00 0.00 0.00 0.00 0.00 0.00 0.00 0.01 0.01 0.02 0.01 0.00 0.00 0.01 0.02 0.01 0.01 0.01 0.01 0.01 0.01 0.00 0.01 0.01 0.00 0.01 0.01 0.02 0.01 0.02 0.03 0.04 0.04 0.04 0.03 0.03 0.04 0.03 0.03 0.03
0.00 0.00 0.00 0.00 0.00 0.00 0.00 0.01 0.02 0.01 0.01 0.01 0.01 0.03 0.01 0.00 0.00 0.00 0.00 0.01 0.02 0.02 0.01 0.01 0.01 0.01 0.01 0.01 0.02 0.03 0.03 0.03 0.03 0.02 0.03 0.03 0.04 0.04 0.03 0.04 0.04 0.03 0.03 0.02
0.00 0.00 0.00 0.00 0.00 0.00 0.00 0.00 0.00 0.00 0.01 0.01 0.01 0.01 0.01 0.00 0.00 0.01 0.00 0.01 0.02 0.03 0.03 0.02 0.02 0.02 0.03 0.03 0.04 0.05 0.05 0.04 0.04 0.03 0.03 0.03 0.03 0.03 0.03 0.02 0.02 0.02 0.01 0.01
0.00 0.00 0.00 0.00 0.00 0.00 0.00 0.00 0.01 0.00 0.01 0.01 0.01 0.01 0.01 0.01 0.01 0.01 0.01 0.01 0.01 0.03 0.04 0.02 0.02 0.03 0.04 0.05 0.05 0.04 0.04 0.03 0.04 0.04 0.03 0.04 0.03 0.03 0.03 0.02 0.02 0.01 0.02 0.03
0.00 0.00 0.00 0.00 0.00 0.00 0.00 0.00 0.01 0.02 0.03 0.02 0.03 0.03 0.03 0.02 0.02 0.01 0.01 0.01 0.02 0.02 0.02 0.02 0.02 0.03 0.03 0.03 0.04 0.07 0.08 0.04 0.03 0.03 0.03 0.03 0.03 0.04 0.04 0.03 0.02 0.02 0.02 0.02
0.00 0.00 0.00 0.00 0.00 0.00 0.00 0.00 0.01 0.03 0.03 0.04 0.05 0.06 0.05 0.04 0.02 0.02 0.02 0.02 0.02 0.02 0.02 0.02 0.02 0.03 0.03 0.02 0.02 0.04 0.04 0.02 0.02 0.03 0.02 0.03 0.02 0.04 0.05 0.04 0.04 0.04 0.02 0.01
0.00 0.01 0.01 0.01 0.02 0.02 0.01 0.01 0.02 0.02 0.03 0.04 0.05 0.05 0.07 0.07 0.05 0.04 0.04 0.05 0.05 0.05 0.05 0.04 0.04 0.05 0.04 0.03 0.03 0.02 0.02 0.02 0.02 0.03 0.03 0.03 0.03 0.03 0.04 0.04 0.04 0.03 0.02 0.02
0.02 0.02 0.03 0.05 0.07 0.05 0.04 0.03 0.03 0.02 0.03 0.04 0.03 0.04 0.06 0.06 0.05 0.04 0.05 0.05 0.07 0.09 0.08 0.07 0.07 0.07 0.06 0.06 0.05 0.05 0.04 0.04 0.03 0.03 0.02 0.01 0.01 0.01 0.02 0.02 0.03 0.04 0.04 0.04
0.03 0.03 0.05 0.09 0.11 0.09 0.08 0.06 0.04 0.04 0.04 0.05 0.05 0.04 0.05 0.07 0.06 0.06 0.07 0.09 0.10 0.10 0.12 0.10 0.10 0.09 0.08 0.08 0.07 0.07 0.06 0.05 0.05 0.04 0.03 0.03 0.03 0.02 0.02 0.02 0.02 0.03 0.03 0.04
0.02 0.05 0.08 0.11 0.12 0.13 0.11 0.08 0.06 0.06 0.07 0.08 0.07 0.06 0.06 0.06 0.07 0.07 0.08 0.10 0.13 0.11 0.09 0.09 0.09 0.09 0.08 0.08 0.08 0.08 0.06 0.05 0.05 0.04 0.04 0.04 0.05 0.04 0.05 0.04 0.03 0.04 0.04 0.03
MSLP
1012.58 1013.33 1013.85 1014.11 1014.15 1014.02 1013.78 1013.52 1013.28 1013.10 1012.96 1012.86 1012.76 1012.65 1012.53 1012.38 1012.25 1012.15 1012.11 1012.13 1012.23 1012.38 1012.57 1012.76 1012.94 1013.12 1013.29 1013.50 1013.76 1014.10 1014.53 1015.04 1015.60 1016.16 1016.66 1017.06 1017.33 1017.45 1017.45 1017.36 1017.23 1017.12 1017.06 1017.09
1013.27 1013.79 1014.06 1014.13 1014.04 1013.87 1013.70 1013.58 1013.52 1013.51 1013.51 1013.48 1013.39 1013.21 1012.95 1012.64 1012.36 1012.13 1012.02 1012.04 1012.18 1012.41 1012.69 1012.95 1013.17 1013.33 1013.46 1013.58 1013.74 1014.00 1014.37 1014.86 1015.43 1016.04 1016.61 1017.09 1017.42 1017.59 1017.60 1017.50 1017.34 1017.19 1017.09 1017.09
1013.76 1014.01 1014.03 1013.91 1013.73 1013.57 1013.51 1013.57 1013.73 1013.94 1014.12 1014.20 1014.11 1013.85 1013.45 1012.98 1012.52 1012.15 1011.96 1011.96 1012.14 1012.45 1012.82 1013.17 1013.44 1013.62 1013.71 1013.76 1013.83 1013.98 1014.27 1014.70 1015.25 1015.87 1016.48 1017.01 1017.39 1017.61 1017.65 1017.55 1017.39 1017.22 1017.11 1017.09
1014.02 1014.02 1013.84 1013.57 1013.35 1013.26 1013.36 1013.65 1014.08 1014.53 1014.90 1015.08 1015.00 1014.66 1014.11 1013.44 1012.78 1012.26 1011.95 1011.91 1012.10 1012.48 1012.94 1013.38 1013.72 1013.93 1014.00 1014.00 1013.98 1014.03 1014.21 1014.56 1015.05 1015.64 1016.26 1016.81 1017.23 1017.48 1017.55 1017.49 1017.34 1017.19 1017.08 1017.07
1014.09 1013.89 1013.55 1013.22 1013.02 1013.06 1013.37 1013.93 1014.63 1015.34 1015.89 1016.16 1016.08 1015.64 1014.92 1014.04 1013.17 1012.46 1012.02 1011.90 1012.08 1012.49 1013.03 1013.55 1013.97 1014.22 1014.30 1014.25 1014.16 1014.11 1014.20 1014.44 1014.86 1015.39 1015.97 1016.51 1016.95 1017.22 1017.33 1017.30 1017.19 1017.05 1016.97 1016.97
1014.02 1013.69 1013.28 1012.96 1012.85 1013.06 1013.61 1014.44 1015.41 1016.34 1017.04 1017.38 1017.28 1016.73 1015.83 1014.74 1013.65 1012.74 1012.14 1011.92 1012.07 1012.49 1013.07 1013.66 1014.14 1014.44 1014.54 1014.47 1014.33 1014.21 1014.20 1014.34 1014.66 1015.12 1015.64 1016.16 1016.59 1016.87 1017.01 1017.01 1016.93 1016.83 1016.77 1016.80
1013.87 1013.47 1013.07 1012.81 1012.85 1013.26 1014.05 1015.12 1016.31 1017.42 1018.23 1018.60 1018.44 1017.78 1016.71 1015.42 1014.13 1013.03 1012.28 1011.96 1012.04 1012.46 1013.06 1013.70 1014.23 1014.57 1014.69 1014.63 1014.46 1014.28 1014.19 1014.26 1014.49 1014.86 1015.32 1015.79 1016.19 1016.48 1016.63 1016.66 1016.62 1016.55 1016.52 1016.56
1013.66 1013.27 1012.92 1012.78 1012.98 1013.58 1014.57 1015.83 1017.17 1018.38 1019.24 1019.60 1019.38 1018.60 1017.40 1015.95 1014.50 1013.26 1012.39 1011.97 1012.00 1012.38 1012.99 1013.65 1014.21 1014.59 1014.75 1014.70 1014.53 1014.32 1014.19 1014.18 1014.34 1014.64 1015.04 1015.46 1015.83 1016.11 1016.26 1016.31 1016.30 1016.26 1016.25 1016.31
1013.42 1013.08 1012.83 1012.81 1013.16 1013.91 1015.03 1016.39 1017.80 1019.03 1019.87 1020.18 1019.89 1019.03 1017.73 1016.19 1014.66 1013.34 1012.41 1011.93 1011.92 1012.28 1012.87 1013.53 1014.12 1014.52 1014.71 1014.69 1014.53 1014.33 1014.18 1014.14 1014.25 1014.49 1014.83 1015.20 1015.54 1015.80 1015.95 1016.01 1016.02 1016.00 1016.02 1016.09
1013.16 1012.90 1012.75 1012.85 1013.30 1014.14 1015.30 1016.66 1018.04 1019.21 1019.98 1020.21 1019.85 1018.94 1017.62 1016.08 1014.55 1013.24 1012.31 1011.83 1011.81 1012.15 1012.73 1013.38 1013.96 1014.38 1014.60 1014.61 1014.49 1014.32 1014.17 1014.13 1014.22 1014.42 1014.72 1015.04 1015.35 1015.58 1015.73 1015.80 1015.81 1015.82 1015.85 1015.93
1012.91 1012.73 1012.67 1012.86 1013.36 1014.20 1015.31 1016.58 1017.83 1018.86 1019.50 1019.64 1019.23 1018.32 1017.05 1015.59 1014.16 1012.95 1012.10 1011.68 1011.68 1012.02 1012.58 1013.21 1013.79 1014.21 1014.44 1014.50 1014.42 1014.29 1014.19 1014.16 1014.25 1014.44 1014.70 1014.99 1015.26 1015.47 1015.60 1015.66 1015.69 1015.70 1015.75 1015.84
1012.69 1012.59 1012.61 1012.84 1013.34 1014.11 1015.10 1016.20 1017.25 1018.08 1018.56 1018.59 1018.15 1017.29 1016.12 1014.82 1013.56 1012.53 1011.82 1011.50 1011.55 1011.90 1012.45 1013.05 1013.60 1014.02 1014.27 1014.36 1014.34 1014.27 1014.22 1014.23 1014.33 1014.51 1014.75 1015.01 1015.24 1015.42 1015.53 1015.59 1015.61 1015.64 1015.70 1015.81
1012.56 1012.53 1012.61 1012.85 1013.30 1013.95 1014.76 1015.64 1016.44 1017.05 1017.34 1017.26 1016.80 1016.01 1014.99 1013.88 1012.85 1012.02 1011.49 1011.30 1011.42 1011.79 1012.31 1012.88 1013.40 1013.80 1014.06 1014.20 1014.23 1014.23 1014.24 1014.30 1014.42 1014.61 1014.83 1015.05 1015.24 1015.39 1015.48 1015.52 1015.55 1015.60 1015.67 1015.80
1012.57 1012.61 1012.72 1012.95 1013.32 1013.83 1014.44 1015.06 1015.60 1015.96 1016.06 1015.88 1015.40 1014.68 1013.81 1012.91 1012.11 1011.49 1011.14 1011.06 1011.24 1011.63 1012.12 1012.65 1013.13 1013.52 1013.80 1013.97 1014.07 1014.14 1014.21 1014.33 1014.48 1014.68 1014.88 1015.07 1015.23 1015.34 1015.40 1015.44 1015.47 1015.53 1015.63 1015.78
1012.77 1012.86 1012.99 1013.20 1013.49 1013.85 1014.24 1014.61 1014.89 1015.01 1014.93 1014.62 1014.12 1013.46 1012.72 1012.01 1011.39 1010.96 1010.75 1010.76 1010.99 1011.36 1011.82 1012.30 1012.75 1013.12 1013.41 1013.63 1013.80 1013.95 1014.11 1014.28 1014.48 1014.68 1014.87 1015.04 1015.16 1015.24 1015.28 1015.31 1015.36 1015.43 1015.56 1015.75
1013.16 1013.29 1013.45 1013.63 1013.83 1014.05 1014.25 1014.38 1014.41 1014.31 1014.05 1013.63 1013.08 1012.45 1011.80 1011.21 1010.73 1010.42 1010.30 1010.37 1010.59 1010.94 1011.35 1011.78 1012.19 1012.56 1012.88 1013.16 1013.41 1013.65 1013.89 1014.14 1014.38 1014.60 1014.80 1014.95 1015.05 1015.11 1015.14 1015.17 1015.23 1015.33 1015.49 1015.70
1013.74 1013.89 1014.04 1014.19 1014.32 1014.40 1014.43 1014.36 1014.19 1013.88 1013.45 1012.92 1012.31 1011.68 1011.06 1010.53 1010.13 1009.87 1009.78 1009.84 1010.03 1010.32 1010.68 1011.06 1011.45 1011.83 1012.19 1012.54 1012.88 1013.23 1013.57 1013.89 1014.20 1014.46 1014.67 1014.82 1014.92 1014.98 1015.02 1015.06 1015.14 1015.27 1015.46 1015.70
1014.44 1014.58 1014.71 1014.81 1014.86 1014.84 1014.72 1014.49 1014.14 1013.67 1013.10 1012.46 1011.79 1011.12 1010.50 1009.97 1009.57 1009.31 1009.19 1009.21 1009.34 1009.56 1009.86 1010.20 1010.57 1010.97 1011.38 1011.82 1012.27 1012.72 1013.17 1013.59 1013.96 1014.28 1014.53 1014.71 1014.84 1014.91 1014.98 1015.05 1015.16 1015.32 1015.54 1015.80
1015.16 1015.26 1015.34 1015.37 1015.34 1015.22 1014.99 1014.64 1014.16 1013.57 1012.90 1012.18 1011.44 1010.73 1010.08 1009.53 1009.09 1008.79 1008.62 1008.56 1008.62 1008.77 1009.00 1009.31 1009.68 1010.10 1010.58 1011.10 1011.65 1012.21 1012.76 1013.28 1013.75 1014.14 1014.45 1014.69 1014.86 1014.98 1015.09 1015.21 1015.35 1015.54 1015.78 1016.05
1015.82 1015.83 1015.83 1015.78 1015.66 1015.46 1015.14 1014.70 1014.15 1013.49 1012.77 1012.00 1011.23 1010.49 1009.81 1009.23 1008.76 1008.40 1008.17 1008.04 1008.02 1008.11 1008.29 1008.56 1008.93 1009.38 1009.91 1010.50 1011.14 1011.80 1012.45 1013.06 1013.61 1014.09 1014.47 1014.78 1015.02 1015.21 1015.38 1015.55 1015.74 1015.95 1016.20 1016.46
1016.32 1016.22 1016.11 1015.96 1015.76 1015.48 1015.10 1014.62 1014.04 1013.38 1012.65 1011.89 1011.14 1010.41 1009.74 1009.15 1008.66 1008.27 1007.99 1007.80 1007.73 1007.76 1007.89 1008.14 1008.50 1008.96 1009.52 1010.16 1010.86 1011.58 1012.30 1012.98 1013.61 1014.16 1014.62 1015.01 1015.33 1015.59 1015.83 1016.06 1016.29 1016.53 1016.77 1017.01
1016.62 1016.39 1016.16 1015.91 1015.63 1015.29 1014.89 1014.41 1013.85 1013.23 1012.56 1011.87 1011.18 1010.52 1009.90 1009.35 1008.88 1008.49 1008.19 1007.98 1007.87 1007.86 1007.96 1008.18 1008.51 1008.96 1009.51 1010.16 1010.86 1011.61 1012.35 1013.08 1013.75 1014.36 1014.89 1015.35 1015.75 1016.09 1016.40 1016.68 1016.95 1017.20 1017.43 1017.64
1016.70 1016.34 1015.99 1015.65 1015.30 1014.94 1014.54 1014.10 1013.62 1013.09 1012.53 1011.96 1011.39 1010.84 1010.33 1009.86 1009.45 1009.10 1008.82 1008.61 1008.49 1008.46 1008.53 1008.70 1009.00 1009.40 1009.91 1010.51 1011.17 1011.89 1012.61 1013.33 1014.02 1014.65 1015.23 1015.75 1016.21 1016.63 1017.00 1017.33 1017.63 1017.89 1018.10 1018.27
1016.58 1016.11 1015.66 1015.25 1014.87 1014.50 1014.14 1013.77 1013.39 1013.00 1012.59 1012.17 1011.76 1011.36 1010.98 1010.63 1010.32 1010.05 1009.82 1009.64 1009.53 1009.49 1009.53 1009.66 1009.89 1010.22 1010.65 1011.16 1011.74 1012.37 1013.03 1013.70 1014.35 1014.99 1015.58 1016.14 1016.66 1017.13 1017.55 1017.92 1018.25 1018.51 1018.71 1018.84
1016.28 1015.73 1015.23 1014.78 1014.39 1014.05 1013.75 1013.47 1013.22 1012.97 1012.72 1012.48 1012.24 1012.00 1011.78 1011.57 1011.37 1011.19 1011.04 1010.92 1010.83 1010.79 1010.81 1010.89 1011.05 1011.29 1011.60 1011.99 1012.45 1012.96 1013.52 1014.11 1014.71 1015.31 1015.90 1016.47 1017.02 1017.53 1017.99 1018.40 1018.74 1019.01 1019.19 1019.30
1015.86 1015.28 1014.75 1014.30 1013.93 1013.63 1013.41 1013.24 1013.10 1012.99 1012.89 1012.80 1012.72 1012.64 1012.55 1012.47 1012.40 1012.32 1012.26 1012.20 1012.15 1012.13 1012.13 1012.17 1012.26 1012.40 1012.60 1012.86 1013.19 1013.57 1014.01 1014.49 1015.02 1015.57 1016.14 1016.71 1017.28 1017.81 1018.30 1018.73 1019.09 1019.37 1019.55 1019.65
Thickness
5836 5816 5804 5813 5820 5820 5820 5817 5817 5831 5848 5839 5828 5826 5831 5834 5831 5825 5821 5817 5811 5810 5813 5814 5810 5806 5800 5795 5791 5786 5780 5776 5773 5768 5765 5761 5758 5758 5757 5757 5756 5756 5755 5754
5810 5804 5823 5833 5835 5831 5825 5816 5817 5831 5846 5836 5823 5821 5829 5832 5831 5830 5826 5821 5818 5813 5810 5810 5808 5805 5800 5795 5791 5786 5782 5778 5774 5771 5767 5764 5761 5759 5758 5757 5755 5755 5754 5754
5801 5817 5838 5834 5829 5824 5822 5818 5819 5822 5832 5832 5821 5806 5815 5826 5831 5831 5829 5826 5823 5817 5811 5810 5808 5804 5800 5795 5792 5788 5783 5779 5775 5772 5768 5764 5760 5758 5756 5754 5754 5755 5754 5754
5809 5828 5833 5828 5826 5827 5812 5833 5833 5827 5809 5795 5807 5777 5800 5814 5818 5823 5824 5822 5820 5819 5816 5811 5808 5803 5799 5797 5794 5790 5785 5780 5776 5773 5768 5762 5757 5754 5754 5754 5754 5754 5754 5753
5805 5825 5824 5820 5830 5836 5828 5841 5834 5825 5807 5791 5795 5781 5787 5808 5806 5814 5821 5822 5821 5820 5817 5812 5809 5805 5802 5798 5794 5790 5785 5780 5777 5773 5769 5764 5759 5757 5756 5755 5754 5753 5753 5753
5813 5832 5833 5832 5843 5846 5843 5829 5816 5801 5786 5769 5785 5779 5779 5797 5809 5816 5822 5823 5822 5820 5817 5812 5809 5804 5800 5798 5794 5789 5784 5780 5777 5773 5769 5765 5760 5757 5754 5753 5751 5751 5751 5751
5798 5816 5833 5841 5829 5834 5826 5790 5763 5762 5750 5758 5782 5779 5781 5812 5826 5827 5825 5824 5824 5821 5816 5810 5805 5801 5798 5796 5792 5789 5784 5779 5777 5773 5769 5765 5762 5758 5755 5753 5751 5750 5749 5748
5773 5779 5817 5833 5826 5815 5813 5790 5757 5747 5745 5755 5775 5773 5794 5826 5833 5834 5832 5829 5826 5820 5816 5812 5808 5804 5800 5796 5793 5789 5784 5779 5776 5773 5769 5766 5763 5760 5757 5755 5753 5751 5750 5749
5769 5777 5820 5834 5839 5827 5810 5795 5790 5765 5760 5751 5760 5780 5802 5823 5822 5823 5823 5823 5821 5820 5817 5813 5809 5805 5801 5797 5794 5790 5785 5780 5777 5774 5770 5767 5764 5761 5758 5757 5755 5752 5750 5749
5785 5777 5803 5825 5834 5831 5823 5809 5777 5761 5744 5738 5755 5767 5776 5799 5808 5815 5816 5817 5819 5819 5817 5813 5810 5806 5803 5799 5795 5791 5786 5781 5778 5774 5771 5767 5765 5762 5759 5756 5753 5751 5750 5748
5790 5773 5784 5801 5805 5803 5810 5804 5782 5760 5754 5739 5738 5759 5806 5807 5814 5815 5817 5819 5819 5818 5816 5813 5810 5807 5803 5799 5794 5790 5785 5781 5777 5774 5770 5767 5764 5761 5759 5755 5753 5751 5749 5747
5790 5771 5762 5782 5810 5823 5814 5803 5783 5762 5757 5750 5743 5763 5822 5821 5824 5822 5820 5822 5821 5820 5818 5815 5811 5807 5802 5797 5793 5789 5785 5781 5777 5774 5769 5766 5763 5760 5757 5754 5751 5749 5747 5745
5788 5764 5749 5758 5778 5802 5804 5805 5793 5777 5761 5748 5745 5770 5819 5821 5821 5824 5822 5822 5820 5818 5815 5812 5809 5805 5801 5796 5792 5788 5784 5780 5777 5773 5768 5764 5761 5758 5754 5752 5750 5747 5745 5742
5796 5763 5753 5748 5759 5783 5790 5798 5798 5776 5756 5755 5763 5780 5803 5810 5813 5817 5820 5820 5819 5816 5813 5809 5806 5804 5801 5797 5792 5787 5783 5780 5776 5771 5766 5761 5758 5756 5753 5750 5747 5745 5742 5739
5783 5762 5767 5772 5785 5793 5793 5794 5796 5786 5777 5768 5777 5786 5800 5812 5817 5820 5819 5817 5816 5813 5811 5808 5804 5802 5799 5795 5791 5787 5782 5778 5774 5768 5763 5759 5757 5754 5751 5747 5744 5742 5738 5736
5767 5760 5764 5767 5782 5786 5785 5792 5795 5794 5793 5788 5789 5792 5813 5819 5821 5818 5817 5816 5812 5812 5810 5808 5805 5801 5798 5794 5790 5786 5781 5777 5772 5766 5761 5758 5755 5751 5747 5744 5741 5737 5734 5730
5750 5750 5742 5742 5764 5770 5761 5782 5788 5789 5793 5791 5782 5794 5809 5809 5812 5814 5815 5816 5815 5813 5812 5809 5805 5802 5798 5795 5791 5784 5780 5775 5770 5764 5760 5756 5752 5747 5743 5740 5736 5732 5729 5725
5744 5736 5727 5730 5745 5733 5758 5791 5795 5788 5788 5794 5797 5803 5808 5811 5815 5819 5820 5818 5815 5815 5813 5811 5808 5802 5798 5794 5789 5784 5777 5771 5766 5761 5756 5752 5748 5743 5739 5735 5731 5727 5724 5721
5744 5734 5720 5712 5716 5730 5760 5783 5786 5778 5773 5788 5792 5799 5804 5809 5808 5807 5816 5819 5819 5818 5816 5812 5808 5802 5796 5791 5787 5780 5773 5766 5761 5757 5753 5749 5745 5739 5735 5731 5726 5723 5719 5715
5733 5729 5715 5708 5710 5711 5743 5776 5790 5780 5758 5783 5789 5791 5795 5797 5781 5789 5809 5813 5814 5815 5812 5808 5804 5798 5791 5787 5783 5775 5768 5763 5758 5754 5751 5747 5742 5737 5731 5727 5722 5718 5714 5709
5707 5706 5702 5700 5702 5715 5749 5771 5776 5745 5746 5774 5781 5785 5788 5786 5786 5796 5804 5805 5808 5807 5806 5803 5798 5792 5787 5783 5778 5769 5764 5759 5756 5752 5747 5742 5738 5733 5727 5722 5717 5713 5708 5703
5692 5688 5690 5690 5690 5703 5747 5755 5745 5744 5761 5768 5773 5779 5781 5783 5788 5791 5794 5796 5798 5796 5794 5793 5788 5782 5778 5776 5770 5763 5758 5755 5751 5747 5742 5736 5732 5728 5723 5717 5711 5707 5702 5696
5685 5688 5689 5693 5698 5719 5735 5739 5746 5752 5754 5760 5765 5772 5774 5774 5776 5779 5781 5783 5785 5785 5782 5780 5776 5771 5768 5765 5762 5755 5751 5749 5745 5739 5734 5729 5725 5720 5716 5711 5706 5700 5695 5690
5681 5691 5689 5689 5697 5711 5722 5732 5737 5744 5749 5756 5761 5765 5767 5765 5765 5767 5768 5769 5769 5769 5769 5768 5763 5759 5756 5754 5752 5749 5745 5742 5737 5731 5725 5721 5716 5711 5707 5703 5699 5694 5689 5684
5670 5677 5676 5678 5689 5700 5708 5714 5722 5732 5739 5746 5751 5754 5756 5756 5754 5754 5755 5756 5756 5756 5755 5755 5752 5748 5745 5744 5741 5739 5736 5732 5727 5721 5717 5712 5708 5702 5696 5691 5687 5684 5681 5678
5661 5665 5665 5666 5678 5682 5690 5704 5713 5719 5724 5730 5736 5738 5741 5743 5742 5742 5742 5743 5743 5742 5743 5741 5740 5737 5734 5733 5730 5728 5727 5724 5719 5712 5707 5703 5698 5693 5687 5682 5676 5672 5671 5669